Погода в Сувейке

Оман     23°51′06″N   57°26′23″E
темп.,
°C
ветер,
м/с
пор.,
м/с
влажн.,
%
обл.,
%
осадки,
мм/ч
давл.,
гПа
погр.,
м
12 августа, пт
пт1201:00+33всв4659100 0.0 994141
04:00+33ююв1254100 0.0 99336
07:00+34в2249100 0.0 99493
10:00+37св644594 0.0 995534
13:00+34всв7759100 0.0 995620
16:00+36всв4544100 0.0 994612
19:00+34в3448100 0.0 995277
22:00+34ююз2241100 0.0 99514
13 августа, сб
сб1301:00+34зюз2237100 0.0 99311
04:00+33с3436100 0.0 99323
07:00+32вюв2360100 0.0 996148
10:00+36св3239100 0.0 9961029
13:00+35сз2237100 0.0 995321
16:00+37с1129100 0.1 994658
19:00+34ссв2240100 0.0 995105
22:00+36з2335100 0.0 995110
14 августа, вс
вс1401:00+35в1240100 0.0 99535
04:00+33юз2352100 0.0 995113
07:00+34всв4446100 0.0 998191
10:00+37з662698 0.0 998790
13:00+39с6629100 0.0 9971498
16:00+34св3346100 0.0 997448
19:00+36юв1137100 0.0 997202
22:00+35ююв123785 0.0 99812
15 августа, пн
пн1501:00+34сз1136100 0.0 99711
04:00+34ссз1136100 0.0 99711
07:00+34зсз343691 0.0 999119
10:00+35ссв113491 0.0 999365
13:00+38ссв442882 0.0 9981284
16:00+35св444392 0.0 998356
19:00+35в334173 0.0 998132
22:00+33св4451100 0.0 999118
16 августа, вт
вт1601:00+33ююв114861 0.0 99813
04:00+31св335889 0.0 99954
07:00+32ссв225393 0.0 999166
10:00+35зсз1243100 0.0 1000541
13:00+36св3239100 0.0 998944
16:00+35св654588 0.0 998497
19:00+34юв4547100 0.0 998442
22:00+34ссв2245100 0.0 99890